SCP
0 0 0 0 0 0 0 0 0 0 0 0 0 0 0 0 0 0 0 0 0 0 0 0 0 0 0 0 0 0 0 0 0 0 0 0 0 0 0 0 0 0 0
0 0 0 0 0 0 0 0 0 0 0 0 0 0 0 0 0 0 0 0 0 0 0 0 0 0 0 0 0 0 0 0 0 0 0 0 0 0 0 0 0 0 0
0 0 0 0 0 0 0 0 0 0 0 0 0 0 0 0 0 0 0 0 0 0 0 0 0 0 0 0 0 0 0 0 0 0 0 0 0 0 0 0 0 0 0
0 0 0 0 0 1 1 1 1 0 0 0 0 0 0 0 0 0 0 0 0 0 0 0 0 0 0 0 0 0 0 0 0 0 0 0 0 0 0 0 0 0 0
1 0 0 0 1 1 1 1 1 0 0 0 0 0 0 0 0 0 0 0 0 0 0 0 0 0 0 0 0 0 0 0 0 0 0 0 0 0 0 0 0 0 0
1 1 0 0 1 1 1 1 1 1 0 0 0 0 0 0 0 0 0 0 0 0 0 0 0 0 0 0 0 0 0 0 0 0 0 0 0 0 0 0 0 0 0
1 1 1 1 1 1 1 1 1 1 0 0 0 0 0 0 0 0 0 0 0 0 0 0 0 0 0 0 0 0 0 0 0 0 0 0 0 0 0 0 0 0 0
1 1 1 1 1 1 1 1 1 1 1 0 0 0 0 0 0 0 0 0 0 0 0 0 0 0 0 0 0 0 0 0 0 0 0 0 0 0 0 0 0 0 0
1 1 1 1 1 1 1 1 1 1 0 0 0 0 0 0 0 0 0 0 0 0 0 0 0 0 0 0 0 0 0 0 0 0 0 0 0 0 0 0 0 0 0
1 1 1 1 1 1 1 1 1 0 0 0 0 0 0 1 0 0 0 0 0 0 0 0 0 0 0 0 0 0 0 0 0 0 0 0 0 0 0 0 0 0 0
1 1 1 1 1 1 1 1 1 0 0 0 0 0 0 0 0 0 0 0 0 0 0 0 0 0 0 0 0 0 0 0 0 0 0 0 0 0 0 0 0 0 0
1 1 1 1 1 1 1 1 1 0 0 0 0 0 0 0 0 0 0 0 0 0 0 0 0 0 0 0 0 0 0 0 0 0 0 0 0 0 0 0 0 0 0
1 1 1 1 1 1 1 1 1 1 1 1 1 1 1 1 0 0 0 0 0 0 0 0 0 0 0 0 0 0 0 0 0 0 0 0 0 0 0 0 0 0 0
1 1 1 1 1 1 1 1 1 1 1 1 1 1 1 1 1 0 0 0 0 0 0 0 0 0 0 0 0 0 0 0 0 0 0 0 0 0 0 0 0 0 0
1 1 1 1 1 1 0 0 0 0 1 1 1 1 1 1 1 1 1 1 1 0 0 0 0 0 0 0 0 0 0 0 0 0 0 0 0 0 0 0 0 0 0
1 1 1 1 1 1 1 0 0 0 1 1 1 1 1 1 1 1 1 1 1 1 0 0 0 0 0 0 0 0 0 0 0 0 0 0 0 0 0 0 0 0 0
1 1 1 1 1 1 1 1 1 1 1 1 1 1 1 1 1 1 1 1 1 1 1 0 0 0 0 0 0 0 0 0 0 0 0 0 0 0 0 0 0 0 0
1 1 1 1 1 1 1 1 1 1 1 1 1 1 1 1 1 1 1 1 1 1 1 1 0 0 0 0 0 0 0 0 0 0 0 0 0 0 0 0 0 0 0
1 1 1 1 1 1 1 1 1 1 1 1 1 1 1 0 0 0 0 0 0 1 1 1 0 0 0 0 0 0 0 0 0 0 0 0 0 0 0 0 0 0 0
1 1 1 1 1 1 1 1 1 1 1 1 1 1 1 1 0 0 0 0 0 0 0 0 0 0 0 0 0 0 0 0 0 0 0 0 0 0 0 0 0 0 0
1 1 1 1 1 1 1 1 1 1 1 1 1 1 1 1 1 0 0 0 0 0 0 0 0 0 0 0 0 0 0 0 0 0 0 0 0 0 0 0 0 0 0
1 1 1 0 0 0 1 1 1 1 0 1 1 1 1 1 1 0 0 0 0 0 0 0 0 0 0 0 0 0 0 0 0 0 0 0 0 0 0 0 0 0 0
0 0 0 0 0 0 0 0 0 0 0 0 0 1 1 1 1 0 0 0 0 0 0 0 0 0 0 0 0 0 0 0 0 0 0 0 0 0 0 0 0 0 0
0 0 0 0 0 0 0 0 0 0 0 0 0 0 1 1 1 1 0 0 1 1 1 1 0 0 0 0 0 0 0 0 0 0 0 0 0 0 0 0 0 0 0
0 0 0 0 0 0 0 0 0 0 0 0 0 0 1 1 1 1 0 0 1 1 1 1 1 0 0 0 0 0 0 0 0 0 0 0 0 0 0 0 0 0 0
0 0 0 0 0 0 0 0 0 0 0 0 0 0 1 1 1 1 0 0 0 0 0 0 0 0 0 0 0 0 0 0 0 0 0 0 0 0 0 0 0 0 0
Wind_Speed
9 9 10 10 8 7 7 6 6 5 4 2 2 2 1 1 1 1 2 2 2 2 2 1 1 1 1 1 1 1 1 1 1 2 2 2 2 1 0 1 1 2 2
8 10 9 9 8 8 7 6 6 6 5 3 3 2 2 1 1 1 1 1 2 2 2 2 1 1 1 1 1 1 1 1 1 2 2 2 3 3 1 1 1 1 1
12 11 10 9 8 8 8 7 6 5 5 4 2 2 2 1 1 1 1 1 2 2 2 3 2 2 2 1 1 1 2 1 0 1 3 2 1 1 2 1 1 1 1
11 11 10 10 10 9 8 7 6 6 5 5 5 4 3 2 2 2 1 1 1 2 2 2 2 2 2 2 1 1 1 2 0 1 0 2 3 2 1 2 1 0 1
12 12 12 12 11 10 9 7 6 6 6 6 6 5 3 2 1 1 1 1 1 1 2 2 2 2 1 2 1 1 1 1 2 1 1 0 0 1 2 1 2 2 1
11 11 10 10 9 8 8 7 6 6 6 6 6 6 5 4 3 2 2 1 1 1 1 2 2 2 1 1 2 1 1 1 1 1 1 1 1 1 2 2 1 1 2
10 10 9 9 9 9 9 8 8 7 6 7 6 6 6 5 5 3 3 2 1 1 2 2 2 2 2 2 2 2 1 2 2 2 1 1 2 2 2 2 1 1 1
9 11 10 10 9 9 9 9 8 7 7 7 6 5 5 4 3 4 3 3 2 3 2 2 2 2 2 2 2 2 2 1 2 2 2 1 1 1 2 2 3 1 1
9 10 9 8 8 8 8 9 8 7 7 7 6 5 5 4 4 4 3 2 2 2 2 2 2 2 2 2 2 2 2 1 1 2 2 1 1 1 1 2 3 3 2
8 9 8 8 7 7 7 7 7 7 6 6 6 5 4 4 4 3 3 3 2 2 2 2 2 2 2 2 2 2 2 2 2 2 2 1 1 1 1 1 1 2 3
9 8 8 7 7 6 6 6 7 6 6 5 5 4 4 4 4 3 4 3 3 3 3 3 3 2 2 2 2 2 1 2 2 2 2 2 1 1 1 1 1 1 2
8 8 8 7 6 6 6 7 6 6 6 6 5 4 4 4 3 3 4 4 4 3 3 3 2 2 2 2 2 2 1 2 2 2 2 2 1 1 1 1 1 2 2
7 7 7 6 6 6 6 6 6 7 6 6 5 4 4 3 4 3 3 3 3 2 2 2 3 3 2 2 2 2 2 2 2 3 3 3 2 2 2 2 2 2 2
8 8 6 6 6 6 6 6 6 6 6 6 6 5 5 4 4 3 3 3 2 2 2 2 3 3 3 2 2 2 2 3 3 3 3 3 3 4 3 2 2 2 1
6 7 7 6 6 5 5 5 5 5 6 6 5 5 5 4 3 3 3 2 2 2 2 2 2 2 2 3 3 3 3 2 2 2 2 3 4 4 4 3 2 2 2
6 6 5 5 6 6 6 6 5 5 5 6 5 5 4 3 3 3 3 3 2 2 2 2 2 2 2 3 4 3 2 2 2 2 2 2 2 3 3 3 4 4 4
7 6 6 6 6 6 6 7 7 5 5 5 5 4 4 3 3 3 2 2 3 2 2 2 2 2 3 4 4 4 3 2 3 3 2 2 2 1 1 1 2 3 5
6 4 4 3 3 4 4 5 5 5 5 4 4 4 4 4 3 3 3 3 2 2 2 3 3 3 4 4 5 4 3 2 3 3 3 3 2 2 1 1 1 2 3
5 4 4 3 3 4 4 4 4 4 4 4 4 4 4 4 4 4 4 3 3 3 3 3 3 3 4 5 6 4 2 2 3 3 3 3 3 4 3 2 2 3 3
4 4 3 3 3 3 5 5 4 4 4 5 5 4 4 4 4 5 4 3 3 3 3 3 3 4 4 6 6 5 2 3 2 2 2 3 4 4 3 3 3 3 4
4 5 4 3 2 3 4 5 4 4 5 4 4 3 4 4 4 4 3 3 3 2 3 3 3 3 4 5 6 6 3 3 2 2 2 2 4 4 4 4 4 6 5
3 4 4 2 1 2 4 3 3 4 3 3 3 3 4 4 3 3 3 2 3 3 3 2 3 2 2 3 3 4 5 4 3 3 2 3 4 4 4 4 4 5 3
3 4 5 3 1 1 3 3 3 2 2 2 3 3 3 3 3 3 3 2 2 3 3 2 3 3 2 2 4 4 5 4 3 3 4 4 4 4 3 4 4 3 2
3 3 4 4 3 2 2 4 3 2 3 3 3 3 3 2 2 2 3 3 3 3 3 3 3 3 2 2 2 2 3 3 3 2 3 3 3 2 3 3 2 2 3
1 2 3 4 4 3 2 3 3 3 3 3 3 3 3 3 2 2 3 4 4 5 5 5 4 4 4 5 6 4 3 3 3 1 0 0 0 1 2 2 2 2 2
2 2 2 3 3 4 3 3 3 3 3 2 3 3 3 3 2 2 2 3 4 5 7 7 6 5 7 7 8 8 7 6 5 3 2 2 2 2 3 2 2 2 2
Wind_Direction
172 165 165 163 160 156 153 157 155 165 157 146 147 140 147 146 126 143 143 133 145 144 132 132 119 114 124 147 131 95 59 26 52 62 24 4 10 48 77 132 143 158 163
167 170 169 165 166 167 165 165 167 169 169 166 167 159 153 157 155 156 142 143 141 140 140 137 141 130 117 90 79 96 84 12 75 103 79 16 355 351 6 25 160 160 152
176 172 170 169 167 171 172 173 173 170 170 159 138 117 86 67 71 101 178 209 163 149 134 143 144 137 137 165 171 135 128 143 326 121 133 138 219 304 335 335 48 113 133
175 171 169 171 175 180 176 172 169 168 170 162 155 149 152 167 195 185 185 206 184 157 153 146 144 144 152 161 184 143 140 132 136 318 197 170 162 155 302 324 334 22 139
176 174 176 176 178 179 176 172 167 170 175 173 172 164 164 175 164 143 158 187 210 186 174 167 156 159 168 169 169 151 147 152 168 196 226 48 87 143 154 259 311 335 298
170 175 176 171 175 178 173 166 166 179 181 174 172 170 168 164 147 149 163 196 232 260 210 177 169 177 182 184 191 188 181 185 182 189 166 161 174 190 162 187 243 274 287
166 166 166 168 174 174 173 169 173 180 179 174 177 179 178 172 171 175 177 178 188 242 250 204 188 197 206 197 190 193 207 202 191 205 214 202 205 183 166 157 194 245 290
165 165 170 170 172 173 175 174 177 181 180 180 187 184 179 177 179 181 178 184 195 211 222 201 195 200 205 208 186 195 217 205 205 217 213 204 220 182 168 167 163 166 305
158 160 165 173 176 175 176 175 176 180 183 184 185 183 179 175 177 178 174 185 199 206 208 196 199 205 203 209 194 207 229 207 211 214 208 205 214 204 194 170 167 165 196
154 158 162 171 175 178 177 168 168 178 184 181 183 181 180 179 178 172 174 183 199 210 201 205 208 213 213 214 207 222 232 202 221 213 203 214 221 205 203 184 179 170 173
164 163 165 171 169 164 165 171 179 178 182 182 180 177 179 182 179 182 193 193 198 203 205 207 206 208 211 210 207 218 210 206 234 236 207 225 217 205 226 197 177 183 163
161 155 154 156 161 162 164 165 171 173 178 177 172 175 174 177 181 196 207 203 204 208 210 207 203 210 213 209 206 214 215 209 225 233 220 238 226 219 234 211 210 211 195
148 146 146 152 165 172 171 172 175 178 177 169 169 173 176 176 186 197 202 203 208 214 211 198 202 213 215 216 215 207 219 232 232 226 218 226 206 232 242 223 216 219 218
154 151 153 165 171 173 175 176 180 181 175 168 169 177 187 191 196 196 193 197 199 199 215 218 215 212 211 214 219 218 230 241 242 237 225 222 213 222 226 225 219 213 209
147 157 163 171 170 167 171 175 179 179 174 166 173 189 194 193 194 192 194 196 201 208 212 215 230 227 215 217 216 220 224 232 249 259 249 238 228 222 219 220 214 201 204
152 155 166 173 172 174 177 178 178 180 170 170 184 191 189 189 193 197 196 196 206 215 202 204 216 240 238 223 218 215 227 224 228 245 262 263 251 239 241 240 226 202 201
163 167 174 182 186 186 177 178 184 176 171 178 184 186 185 190 200 205 203 212 216 214 214 219 209 228 240 230 223 216 210 221 229 231 238 253 253 234 240 261 267 246 236
154 164 168 168 166 163 164 164 161 165 174 183 190 189 188 199 205 200 209 220 214 213 222 231 230 234 248 239 227 222 217 232 241 233 221 216 234 235 208 226 278 275 259
150 153 152 147 140 147 154 139 139 154 165 179 189 197 195 198 201 208 220 221 210 221 226 230 228 232 250 244 236 224 216 233 246 244 232 211 212 228 210 200 243 275 279
132 125 113 100 111 141 148 142 151 160 182 194 197 196 194 194 205 214 221 216 207 220 228 239 235 230 242 246 237 220 202 221 240 258 251 220 215 227 218 206 218 248 263
128 122 117 120 160 167 147 154 164 193 205 197 190 193 199 203 206 207 213 213 211 217 231 245 249 239 239 246 241 223 203 210 223 231 245 243 231 239 243 235 222 235 242
129 134 134 144 204 156 140 154 202 214 202 179 182 197 204 208 202 195 212 210 201 211 235 250 268 264 246 225 227 214 208 204 206 227 234 237 241 250 255 255 251 247 233
150 154 149 152 190 159 147 167 236 231 183 179 194 204 207 211 200 196 205 208 205 211 227 231 247 266 264 244 229 208 203 201 204 232 243 248 253 252 248 250 257 239 203
154 152 149 159 185 190 176 188 212 197 174 198 217 214 205 214 218 213 204 204 211 215 222 222 232 243 247 236 228 217 209 211 225 251 259 255 246 245 252 264 263 226 208
153 154 165 175 185 179 199 214 197 176 184 209 216 214 211 209 221 232 227 219 221 213 210 220 215 214 231 233 212 201 207 204 210 196 242 325 310 279 283 284 265 239 217
161 171 184 185 189 183 192 216 200 184 189 215 227 219 213 214 213 220 266 278 246 238 225 220 212 221 223 215 208 209 212 209 187 163 198 221 229 234 243 257 266 247 228